FENGYUN 1C DEB, 32419

Orbit data source: Space-Track

FENGYUN 1C DEB, 32419 is space debris in SSO originally from a launch on Mon, 10 May 1999 UTC launched from the Taiyaun Space Center, China (TSC). Fengyun 1C debris stems from the Chinese weather satellite Fengyun-1C, which was intentionally destroyed by a Chinese anti-satellite missile in 2007. This event dramatically increased the amount of space debris, with thousands of trackable fragments posing hazards to satellites and human spaceflight. The Fengyun 1C debris cloud has become a focal point in discussions about space sustainability and the need for international regulations to prevent the creation of new debris.

Loading next visibility...
Identifier
32419, 1999-025DAF
Orbit
SSO
Country
Flag of CNCN / PRC
Related business
Manufacturer
Unknown
Mission
Spacecraft
Bus & Motor
Unknown
Mass
Unknown
Launch date (UTC)
1999-05-10 (27 years ago)
Launch vehicle
Unknown
Launch site
Taiyaun Space Center, China (TSC)
Object type
Payload
Rocket body
Debris
Shape & HBR
Unknown shape, 0.1 m
Radar Cross Section
Small (<0.1 m²)

Expand to show TLE details & history
Last TLE update: 3 days ago

TLE from 3 days ago
0 FENGYUN 1C DEB
1 32419U 99025DAF 26162.05483767  .00000525  00000-0  22081-3 0  9999
2 32419  97.9546  81.7971 0280221 225.8619 131.9203 14.10412677661120
Epoch: 2026-06-11T01:18Z
TLE epoch observation values (Epoch: 2026-06-11T01:18:57.974Z)
Latitude
-0.00002°
Longitude
162.65141°
Altitude
999.441 km
Speed
7.281 km/s
True Right ascension
05h 27m 11s
True Declination
0° 00' 00"
Sunlit
Object was in daylight at epoch
Visualization orbit readout
Latitude
Unknown
Longitude
Unknown
Altitude
Unknown
Speed
Unknown
Apparent Right ascension
Unknown
Apparent Declination
Unknown
Sunlit
N/A
Visualization observer readout
Local Sidereal Time
14:16:36
Azimuth
Unknown
Elevation
Unknown
Doppler factor
Unknown
Orbital elements
Apogee altitude
1,057.784 km
Perigee altitude
652.403 km
Semi-major axis
7,233.23 km
Eccentricity
0.02802
Inclination
97.9546°
RAAN
81.7971°
Arg. of periapsis
225.8619°
True anomaly
134.25427°
Mean anomaly
131.9203°
Eccentric anomaly
133.09275°
Mean motion
3.52813 °/min
Orbital period
102.04 mins
BSTAR
0.00022081
Loading maneuver chart data...
Computing Atmospheric mass density...
Loading historical data...
Loading historical data...
Loading historical data...
Loading historical data...
Loading historical data...
Loading historical data...
Loading historical data...

Documentation

Showing up to 5 results
|